NOAA 16 DEB

Satellite information

Favourite Embed

Satellite Type and Status

DEBRISIN ORBIT

Key statistics

Satellite NOAA 16 DEB at a glance.

Uptime

9214

Days in orbit

Revolutions

≈ 14.3

Per day

Orbit

SSO

Sun Synchronous Orbit

Inclination

98.9

Latest

Satellite identification and parameters

Extended collection of information and parameters for NOAA 16 DEB.

Object identification

Identified? True

Debris? True

Object name: NOAA 16 DEB

International designator: 2000-055RQ

Object number (NORAD): 42372

Object ID (CCSDS): 42372

Country: UNITED STATES OF AMERICA (US)

Current information (Y/N): Y

RCS size: SMALL

Orbital parameters

Period: 100.528 minutes

Inclination: 98.8635 deg

SMA: 7161.736 km

Apoapsis: 792.107 km

Periapsis: 775.096 km

RAAN: 97.4096 deg

Eccentricy: 0.00118757

Argument of periapsis: 172.4564 deg

Mean anomaly: 187.6799 deg

Mean motion: 14.32436118 rev/day

Mean motion (dot): 0.00006958 rev/day2

B* drag term: 0.0025834986 1/REarth

Two-line elements (TLE)

Creation date: Dec. 9, 2025, 1:02 p.m.

Reference frame: TEME

Reference center: EARTH

Epoch: Dec. 9, 2025, 3:47 a.m. UTC

TLE line 0: 0 NOAA 16 DEB

TLE line 1: 1 42372U 00055RQ 25343.15781689 .00006958 00000-0 25835-2 0 9993

TLE line 2: 2 42372 98.8635 97.4096 0011876 172.4564 187.6799 14.32436118500157

Live tracking on map

Real-time ground track for satellite NOAA 16 DEB.

In-orbit conjunctions

A list of the most updated potential collisions computed for object NOAA 16 DEB.

Target Orbit TCA Probability of collision Miss distance Type
CZ-6A DEB LEO 2025-01-16 14:44:38 0.0001105088 531.0 (m) DEBRIS
CZ-6A DEB LEO 2025-01-06 04:05:11 0.0001204482 308.0 (m) DEBRIS
COSMOS 2251 DEB LEO 2024-11-15 05:55:08 0.0001379163 366.0 (m) DEBRIS
CZ-6A DEB LEO 2024-11-15 05:50:31 0.0001252008 379.0 (m) DEBRIS

Associated space launch

The NOAA K, L and M POES satellites begin the fifth generation of improved environmental monitoring in support of NOAA missions. The instrument payload has significant improvements and additions/deletions. The instrument changes have effected the spacecraft subsystems and data formats.

NOAA 16 DEB was lifted into orbit during the mission ‘Titan II SLV | NOAA 16’, on board a Titan II SLV space rocket.

The launch took place on Sept. 21, 2000, 10:22 a.m. from Space Launch Complex 4W.

For more information about the launch, click the button.

Launch to space Titan II SLV | NOAA 16
Titan II SLV | NOAA 16

Agency: N/A

Status: Launch Successful

Launch date: Sept. 21, 2000, 10:22 a.m. UTC

Rocket: Titan II SLV

Launch pad: Space Launch Complex 4W

Location: Vandenberg SFB, CA, USA

...

Latest news about this satellite

There are no fresh news available about this satellite. Check back as we update our databases every day.


Newsletter sign-up

Weekly statistics, charts and insights to help you stay on top of the space industry.